Location: *
(49.0044°N, 9.5056°E)
Time: 23:09:15
(UTC+00:00)

Cosmos 2341 Rocket - Pass Details

Date: 22 September 2019
Orbit: 967 x 1005 km, 82.9° (Epoch: 21 October)

Event Time Altitude Azimuth Distance (km) Brightness Sun altitude
Rises 18:30:17 0° 350° (N) 3,691 7.4 -12.1°
Reaches altitude 10° 18:32:49 10° 352° (N) 2,735 6.7 -12.5°
Maximum altitude 18:39:06 83° 81° (E) 984 4.0 -13.5°
Drops below altitude 10° 18:45:18 10° 170° (S) 2,703 6.1 -14.5°
Sets 18:47:47 0° 171° (S) 3,645 6.7 -14.9°
